Hourly Weather Al Marj

Today, 6 March, Saturday

Time Temperature Precipitation Wind Pressure Humidity
00:00 +11°C° 0 mm 6 mps 715 mmHg 34%
01:00 +11°C° 0 mm 7 mps 714 mmHg 34%
02:00 +10°C° 0 mm 6 mps 714 mmHg 35%
03:00 +10°C° 0 mm 6 mps 714 mmHg 37%
04:00 +10°C° 0 mm 6 mps 714 mmHg 38%
05:00 +9°C° 0 mm 6 mps 714 mmHg 39%
06:00 +9°C° 0 mm 6 mps 714 mmHg 40%
07:00 +9°C° 0 mm 6 mps 714 mmHg 41%
08:00 +11°C° 0 mm 7 mps 715 mmHg 38%
09:00 +14°C° 0 mm 7 mps 715 mmHg 35%
10:00 +15°C° 0 mm 8 mps 716 mmHg 31%
11:00 +17°C° 0 mm 8 mps 715 mmHg 28%
12:00 +18°C° 0 mm 8 mps 715 mmHg 24%
13:00 +21°C° 0 mm 7 mps 715 mmHg 21%
14:00 +21°C° 0 mm 6 mps 715 mmHg 21%
15:00 +21°C° 0 mm 5 mps 715 mmHg 20%
16:00 +21°C° 0 mm 3 mps 715 mmHg 20%
17:00 +19°C° 0 mm 2 mps 714 mmHg 25%
18:00 +19°C° 0 mm 1 mps 714 mmHg 29%
19:00 +16°C° 0 mm 1 mps 714 mmHg 34%
20:00 +15°C° 0 mm 1 mps 714 mmHg 32%
21:00 +15°C° 0 mm 1 mps 715 mmHg 31%
22:00 +15°C° 0 mm 1 mps 715 mmHg 29%
23:00 +14°C° 0 mm 1 mps 715 mmHg 30%

Tomorrow, 7 March, Sunday

Time Temperature Precipitation Wind Pressure Humidity
00:00 +14°C° 0 mm 1 mps 714 mmHg 31%
01:00 +14°C° 0 mm 2 mps 714 mmHg 32%
02:00 +13°C° 0 mm 1 mps 714 mmHg 33%
03:00 +12°C° 0 mm 1 mps 714 mmHg 35%
04:00 +12°C° 0 mm 1 mps 713 mmHg 36%
05:00 +12°C° 0 mm 1 mps 714 mmHg 37%
06:00 +13°C° 0 mm 2 mps 714 mmHg 37%
07:00 +13°C° 0 mm 2 mps 714 mmHg 37%
08:00 +15°C° 0 mm 2 mps 715 mmHg 33%
09:00 +17°C° 0 mm 2 mps 715 mmHg 29%
10:00 +19°C° 0 mm 2 mps 715 mmHg 25%
11:00 +20°C° 0 mm 2 mps 715 mmHg 25%
12:00 +21°C° 0 mm 2 mps 715 mmHg 26%
13:00 +21°C° 0 mm 3 mps 715 mmHg 27%
14:00 +21°C° 0 mm 4 mps 715 mmHg 33%
15:00 +20°C° 0 mm 5 mps 714 mmHg 39%
16:00 +19°C° 0 mm 6 mps 714 mmHg 45%
17:00 +16°C° 0 mm 6 mps 714 mmHg 52%
18:00 +15°C° 0 mm 6 mps 714 mmHg 59%
19:00 +13°C° 0 mm 6 mps 714 mmHg 65%
20:00 +13°C° 0 mm 5 mps 714 mmHg 64%
21:00 +13°C° 0 mm 5 mps 714 mmHg 62%
22:00 +12°C° 0 mm 4 mps 714 mmHg 60%
23:00 +12°C° 0 mm 4 mps 713 mmHg 58%

Day after tomorrow, 8 March, Monday

Time Temperature Precipitation Wind Pressure Humidity
00:00 +12°C° 0 mm 3 mps 713 mmHg 57%
01:00 +12°C° 0 mm 3 mps 713 mmHg 55%
02:00 +11°C° 0 mm 3 mps 712 mmHg 54%
03:00 +11°C° 0 mm 3 mps 712 mmHg 54%
04:00 +11°C° 0 mm 4 mps 711 mmHg 53%
05:00 +11°C° 0 mm 4 mps 711 mmHg 50%
06:00 +12°C° 0 mm 4 mps 712 mmHg 48%
07:00 +12°C° 0 mm 4 mps 712 mmHg 46%
08:00 +13°C° 0 mm 4 mps 712 mmHg 44%
09:00 +15°C° 0 mm 5 mps 712 mmHg 42%
10:00 +17°C° 0 mm 6 mps 712 mmHg 40%
11:00 +19°C° 0 mm 6 mps 712 mmHg 37%
12:00 +20°C° 0 mm 6 mps 712 mmHg 34%
13:00 +21°C° 0 mm 6 mps 712 mmHg 31%
14:00 +21°C° 0 mm 6 mps 711 mmHg 31%
15:00 +21°C° 0 mm 6 mps 710 mmHg 31%
16:00 +21°C° 0 mm 6 mps 710 mmHg 32%
17:00 +20°C° 0 mm 6 mps 709 mmHg 36%
18:00 +17°C° 0 mm 7 mps 709 mmHg 40%
19:00 +16°C° 0 mm 7 mps 709 mmHg 44%
20:00 +16°C° 0 mm 7 mps 709 mmHg 44%
21:00 +15°C° 0 mm 8 mps 708 mmHg 44%
22:00 +15°C° 0 mm 8 mps 708 mmHg 44%
23:00 +15°C° 0 mm 8 mps 708 mmHg 47%

9 March, Tuesday

Time Temperature Precipitation Wind Pressure Humidity
00:00 +13°C° 0 mm 9 mps 707 mmHg 49%
01:00 +13°C° 0 mm 9 mps 707 mmHg 51%
02:00 +13°C° 0 mm 8 mps 707 mmHg 54%
03:00 +14°C° 0 mm 7 mps 706 mmHg 57%
04:00 +14°C° 0 mm 6 mps 706 mmHg 60%
05:00 +14°C° 0 mm 6 mps 706 mmHg 58%
06:00 +14°C° 0 mm 6 mps 706 mmHg 56%
07:00 +15°C° 0 mm 7 mps 706 mmHg 53%
08:00 +17°C° 0 mm 8 mps 706 mmHg 44%
09:00 +21°C° 0 mm 9 mps 707 mmHg 35%
10:00 +24°C° 0 mm 11 mps 707 mmHg 26%
11:00 +24°C° 0 mm 11 mps 707 mmHg 25%
12:00 +24°C° 0 mm 11 mps 708 mmHg 24%
13:00 +24°C° 0 mm 11 mps 708 mmHg 22%
14:00 +23°C° 0 mm 11 mps 707 mmHg 27%
15:00 +22°C° 0 mm 10 mps 707 mmHg 32%
16:00 +21°C° 0 mm 9 mps 707 mmHg 37%
17:00 +18°C° 0 mm 7 mps 707 mmHg 48%
18:00 +16°C° 0 mm 6 mps 708 mmHg 59%
19:00 +14°C° 0 mm 4 mps 708 mmHg 69%
20:00 +14°C° 0 mm 4 mps 708 mmHg 75%
21:00 +13°C° 0 mm 4 mps 708 mmHg 81%
22:00 +13°C° 0 mm 4 mps 709 mmHg 87%
23:00 +12°C° 0 mm 5 mps 709 mmHg 87%

10 March, Wednesday

Time Temperature Precipitation Wind Pressure Humidity
00:00 +12°C° 0 mm 5 mps 709 mmHg 88%
01:00 +12°C° 0 mm 5 mps 709 mmHg 89%
02:00 +10°C° 0 mm 6 mps 709 mmHg 89%
03:00 +10°C° 0 mm 6 mps 709 mmHg 90%
04:00 +10°C° 0 mm 6 mps 709 mmHg 90%
05:00 +10°C° 0 mm 6 mps 710 mmHg 88%
06:00 +10°C° 0 mm 6 mps 710 mmHg 86%
07:00 +10°C° 0 mm 6 mps 711 mmHg 84%
08:00 +13°C° 0 mm 6 mps 711 mmHg 75%
09:00 +14°C° 0 mm 5 mps 712 mmHg 65%
10:00 +16°C° 0 mm 5 mps 713 mmHg 56%
11:00 +18°C° 0 mm 4 mps 713 mmHg 51%
12:00 +18°C° 0 mm 4 mps 713 mmHg 47%
13:00 +19°C° 0 mm 4 mps 713 mmHg 42%
14:00 +17°C° 0 mm 5 mps 713 mmHg 46%
15:00 +17°C° 0 mm 6 mps 712 mmHg 49%
16:00 +16°C° 0 mm 7 mps 712 mmHg 52%
17:00 +14°C° 0 mm 7 mps 712 mmHg 58%
18:00 +12°C° 0 mm 7 mps 712 mmHg 64%
19:00 +11°C° 0 mm 7 mps 713 mmHg 70%
20:00 +10°C° 0 mm 7 mps 713 mmHg 73%
21:00 +10°C° 0 mm 7 mps 713 mmHg 76%
22:00 +10°C° 0 mm 6 mps 714 mmHg 80%
23:00 +9°C° 0 mm 6 mps 714 mmHg 82%

11 March, Thursday

Time Temperature Precipitation Wind Pressure Humidity
00:00 +9°C° 0 mm 6 mps 714 mmHg 84%
01:00 +9°C° 0 mm 6 mps 714 mmHg 86%
02:00 +9°C° 0 mm 5 mps 714 mmHg 87%
03:00 +9°C° 0 mm 5 mps 714 mmHg 88%
04:00 +8°C° 0 mm 5 mps 714 mmHg 89%
05:00 +9°C° 0 mm 5 mps 714 mmHg 88%
06:00 +10°C° 0 mm 4 mps 715 mmHg 87%
07:00 +10°C° 0 mm 4 mps 715 mmHg 86%
08:00 +12°C° 0 mm 5 mps 716 mmHg 77%
09:00 +13°C° 0 mm 5 mps 717 mmHg 68%
10:00 +15°C° 0 mm 5 mps 717 mmHg 59%
11:00 +15°C° 0 mm 5 mps 717 mmHg 56%
12:00 +16°C° 0 mm 6 mps 717 mmHg 54%
13:00 +17°C° 0 mm 6 mps 717 mmHg 52%
14:00 +16°C° 0 mm 6 mps 717 mmHg 53%
15:00 +16°C° 0 mm 6 mps 717 mmHg 55%
16:00 +15°C° 0 mm 5 mps 716 mmHg 56%
17:00 +14°C° 0 mm 5 mps 717 mmHg 63%
18:00 +13°C° 0 mm 5 mps 717 mmHg 71%
19:00 +12°C° 0 mm 4 mps 717 mmHg 78%
20:00 +11°C° 0 mm 4 mps 717 mmHg 79%
21:00 +11°C° 0 mm 4 mps 718 mmHg 80%
22:00 +11°C° 0 mm 4 mps 718 mmHg 82%
23:00 +10°C° 0 mm 4 mps 718 mmHg 84%
Show more